EW3281 Weather Reports


Display with metric or nautical units.
time (UTC)temp
F
wind
direction
speed
MPH
gust
MPH
rain 1hr
in
rain 24hr
in
rain mn
in
humidity
%
barometer
mb
20260504202027 67 110 0.0 0.0 0.00 0.00 0.00 44 1007.1
20260504201528 67 65 0.0 2.0 0.00 0.00 0.00 43 1007.1
20260504201027 67 330 0.0 2.0 0.00 0.00 0.00 43 1007.1
20260504200526 67 109 0.0 2.0 0.00 0.00 0.00 44 1007.2
20260504195526 68 75 0.0 0.0 0.00 0.00 0.00 45 1007.1
20260504195027 68 164 0.0 0.0 0.00 0.00 0.00 43 1007.2
20260504194525 68 203 0.0 0.0 0.00 0.00 0.00 44 1007.2
20260504194024 68 155 0.0 2.0 0.00 0.00 0.00 41 1007.2
20260504193524 69 99 0.0 2.0 0.00 0.00 0.00 38 1007.2
20260504193023 69 6 0.0 0.0 0.00 0.00 0.00 36 1007.2
20260504192522 69 95 0.0 1.0 0.00 0.00 0.00 37 1007.2
20260504192023 69 282 0.0 1.0 0.00 0.00 0.00 36 1007.3
20260504191525 69 96 0.0 0.0 0.00 0.00 0.00 37 1007.2
20260504191021 69 39 0.0 5.0 0.00 0.00 0.00 36 1007.4
20260504190521 69 207 1.0 8.0 0.00 0.00 0.00 38 1007.3
20260504185524 69 116 0.0 3.0 0.00 0.00 0.00 35 1007.3
20260504185021 69 52 0.0 0.0 0.00 0.00 0.00 37 1007.3
20260504184521 69 315 0.0 0.0 0.00 0.00 0.00 36 1007.4
20260504184021 70 136 0.0 3.0 0.00 0.00 0.00 36 1007.4
20260504183520 70 79 0.0 3.0 0.00 0.00 0.00 35 1007.3
20260504183023 70 7 0.0 13.0 0.00 0.00 0.00 34 1007.4
20260504182526 70 91 1.0 13.0 0.00 0.00 0.00 34 1007.6
20260504182022 70 96 0.0 7.0 0.00 0.00 0.00 33 1007.6
20260504181517 70 64 1.0 7.0 0.00 0.00 0.00 32 1007.7
20260504181017 70 30 0.0 12.0 0.00 0.00 0.00 32 1007.7
20260504180520 70 296 0.0 10.0 0.00 0.00 0.00 31 1007.7
20260504175514 70 48 0.0 10.0 0.00 0.00 0.00 31 1007.7
20260504175014 70 241 1.0 6.0 0.00 0.00 0.00 31 1007.6
20260504174514 70 195 0.0 3.0 0.00 0.00 0.00 31 1007.7
20260504174014 70 243 0.0 1.0 0.00 0.00 0.00 31 1007.7
20260504173512 70 229 0.0 0.0 0.00 0.00 0.00 31 1007.6
20260504173013 70 32 0.0 0.0 0.00 0.00 0.00 30 1007.7
20260504172512 70 129 0.0 10.0 0.00 0.00 0.00 30 1007.8
20260504172012 69 191 1.0 10.0 0.00 0.00 0.00 30 1007.8
20260504171512 70 214 0.0 2.0 0.00 0.00 0.00 31 1007.7
20260504171014 70 269 0.0 14.0 0.00 0.00 0.00 31 1007.7
20260504170510 70 220 0.0 0.0 0.00 0.00 0.00 32 1007.9
20260504151049 65 228 0.0 2.0 0.00 0.00 0.00 35 1009.0
20260504150548 65 200 0.0 0.0 0.00 0.00 0.00 39 1008.9
20260504141039 63 237 0.0 0.0 0.00 0.00 0.00 41 1009.7
20260504140540 62 164 0.0 0.0 0.00 0.00 0.00 40 1009.7
20260504130529 58 236 0.0 0.0 0.00 0.00 0.00 49 1010.1
20260504110515 45 229 0.0 0.0 0.00 0.00 0.00 82 1010.3
20260504100558 0 0.0 0.0 0.00 0.00 0.00 1010.1
20260504081545 45 234 0.0 0.0 0.00 0.00 0.00 64 1009.9
20260504081040 45 247 0.0 0.0 0.00 0.00 0.00 64 1009.9
20260504080540 44 65 0.0 0.0 0.00 0.00 0.00 67 1009.8
20260504050532 42 253 0.0 0.0 0.00 0.00 0.00 65 1009.6
20260504045537 42 270 0.0 1.0 0.00 0.00 0.00 65 1009.7
20260504045032 42 139 0.0 1.0 0.00 0.00 0.00 65 1009.8
20260504044533 42 178 0.0 0.0 0.00 0.00 0.00 66 1009.8
20260504044035 41 258 0.0 0.0 0.00 0.00 0.00 67 1009.7
20260504043531 41 251 0.0 0.0 0.00 0.00 0.00 68 1009.7
20260504043031 42 251 0.0 0.0 0.00 0.00 0.00 67 1009.7
20260504042530 42 257 0.0 0.0 0.00 0.00 0.00 68 1009.6
20260504042031 42 257 0.0 0.0 0.00 0.00 0.00 67 1009.6
20260504041530 42 255 0.0 0.0 0.00 0.00 0.00 67 1009.6
20260504041029 42 253 0.0 0.0 0.00 0.00 0.00 66 1009.5
20260504040529 42 253 0.0 0.0 0.00 0.00 0.00 66 1009.6
20260504035529 42 209 0.0 0.0 0.00 0.00 0.00 66 1009.6
20260504035028 42 275 0.0 0.0 0.00 0.00 0.00 65 1009.5
20260504034528 43 275 0.0 0.0 0.00 0.00 0.00 65 1009.4
20260504034029 43 245 0.0 0.0 0.00 0.00 0.00 65 1009.3
20260504033527 43 245 0.0 0.0 0.00 0.00 0.00 65 1009.3
20260504033029 42 243 0.0 0.0 0.00 0.00 0.00 65 1009.3
20260504032527 42 272 0.0 0.0 0.00 0.00 0.00 67 1009.3
20260504032025 41 264 0.0 0.0 0.00 0.00 0.00 68 1009.2
20260504031528 41 308 0.0 0.0 0.00 0.00 0.00 68 1009.2
20260504031026 41 330 0.0 0.0 0.00 0.00 0.00 69 1009.1
20260504030524 41 330 0.0 0.0 0.00 0.00 0.00 69 1009.1
20260504025524 41 330 0.0 0.0 0.00 0.00 0.00 68 1009.0
20260504025024 41 330 0.0 0.0 0.00 0.00 0.00 69 1009.1
20260504024523 41 332 0.0 0.0 0.00 0.00 0.00 68 1009.1
20260504024022 41 332 0.0 0.0 0.00 0.00 0.00 68 1009.0
20260504023522 41 332 0.0 0.0 0.00 0.00 0.00 67 1009.0
20260504023022 41 332 0.0 0.0 0.00 0.00 0.00 67 1009.0
20260504022523 41 332 0.0 0.0 0.00 0.00 0.00 67 1009.0
20260504022019 42 250 0.0 0.0 0.00 0.00 0.00 66 1009.0
20260504021520 42 250 0.0 0.0 0.00 0.00 0.00 66 1008.9
20260504021019 42 250 0.0 0.0 0.00 0.00 0.00 65 1009.0
20260504020519 42 250 0.0 0.0 0.00 0.00 0.00 65 1009.0
20260504015518 42 250 0.0 0.0 0.00 0.00 0.00 64 1009.0
20260504015026 43 250 0.0 0.0 0.00 0.00 0.00 62 1009.0
20260504014528 43 250 0.0 0.0 0.00 0.00 0.00 61 1008.9
20260504014015 43 250 0.0 0.0 0.00 0.00 0.00 59 1008.8
20260504013513 44 250 0.0 0.0 0.00 0.00 0.00 58 1008.8
20260504013014 44 250 0.0 0.0 0.00 0.00 0.00 57 1008.7
20260504012515 44 250 0.0 0.0 0.00 0.00 0.00 57 1008.6
20260504012011 44 263 0.0 0.0 0.00 0.00 0.00 56 1008.6
20260504011509 44 263 0.0 0.0 0.00 0.00 0.00 54 1008.5
20260504011010 45 263 0.0 0.0 0.00 0.00 0.00 54 1008.4
20260504010513 45 263 0.0 0.0 0.00 0.00 0.00 52 1008.3
20260504005505 46 263 0.0 0.0 0.00 0.00 0.00 51 1008.2
20260504005003 47 263 0.0 0.0 0.00 0.00 0.00 50 1008.1
20260504004504 48 263 0.0 0.0 0.00 0.00 0.00 48 1008.0
20260504004103 48 263 0.0 0.0 0.00 0.00 0.00 47 1008.0
20260504003600 49 263 0.0 0.0 0.00 0.00 0.00 47 1008.0
20260504003100 49 263 0.0 0.0 0.00 0.00 0.00 45 1007.9
20260504002558 50 263 0.0 0.0 0.00 0.00 0.00 43 1007.9
20260504002058 50 263 0.0 0.0 0.00 0.00 0.00 43 1007.8
20260504001603 50 235 0.0 0.0 0.00 0.00 0.00 42 1007.8
20260504001058 50 238 0.0 0.0 0.00 0.00 0.00 42 1007.7
20260504000558 50 238 0.0 0.0 0.00 0.00 0.00 41 1007.7
20260504000159 51 221 0.0 0.0 0.00 0.00 0.00 42 1007.6
20260503235601 51 244 0.0 0.0 0.00 0.00 0.00 41 1007.6
20260503235057 51 237 0.0 0.0 0.00 0.00 0.00 41 1007.5
20260503234556 51 229 0.0 0.0 0.00 0.00 0.00 41 1007.5
20260503234100 51 63 0.0 0.0 0.00 0.00 0.00 40 1007.4
20260503233555 51 287 0.0 0.0 0.00 0.00 0.00 39 1007.4
20260503233102 52 254 0.0 0.0 0.00 0.00 0.00 40 1007.3
20260503232554 52 224 0.0 0.0 0.00 0.00 0.00 39 1007.3
20260503232053 52 229 0.0 0.0 0.00 0.00 0.00 39 1007.2
20260503231553 52 259 0.0 1.0 0.00 0.00 0.00 39 1007.1
20260503231051 52 250 0.0 1.0 0.00 0.00 0.00 38 1007.0
20260503230551 53 247 0.0 0.0 0.00 0.00 0.00 40 1007.0
20260503230152 53 226 0.0 1.0 0.00 0.00 0.00 38 1006.8
20260503225554 53 224 0.0 3.0 0.00 0.00 0.00 39 1006.8
20260503225051 53 231 0.0 3.0 0.00 0.00 0.00 38 1006.7
20260503224551 53 212 0.0 1.0 0.00 0.00 0.00 37 1006.6
20260503224050 53 234 0.0 1.0 0.00 0.00 0.00 38 1006.5
20260503223551 53 235 0.0 0.0 0.00 0.00 0.00 38 1006.4
20260503223050 53 232 0.0 0.0 0.00 0.00 0.00 37 1006.4
20260503222548 53 243 0.0 1.0 0.00 0.00 0.00 39 1006.3
20260503222048 53 252 0.0 1.0 0.00 0.00 0.00 39 1006.3
20260503221557 53 219 0.0 0.0 0.00 0.00 0.00 38 1006.2
20260503221047 54 262 0.0 1.0 0.00 0.00 0.00 38 1006.1
20260503220547 53 222 0.0 1.0 0.00 0.00 0.00 39 1006.1
20260503220148 53 234 0.0 0.0 0.00 0.00 0.00 41 1005.9
20260503215547 54 221 0.0 0.0 0.00 0.00 0.00 39 1006.0
20260503215044 54 271 0.0 2.0 0.00 0.00 0.00 40 1005.9
20260503214544 54 226 0.0 2.0 0.00 0.00 0.00 39 1005.8
20260503214043 54 79 0.0 6.0 0.00 0.00 0.00 38 1005.8
20260503213545 54 109 0.0 0.0 0.00 0.00 0.00 39 1005.8
20260503213043 54 149 0.0 0.0 0.00 0.00 0.00 38 1005.7
20260503212543 54 207 0.0 1.0 0.00 0.00 0.00 39 1005.5
20260503212042 54 23 0.0 1.0 0.00 0.00 0.00 40 1005.4
20260503211542 54 224 0.0 1.0 0.00 0.00 0.00 39 1005.5
20260503211041 54 235 0.0 0.0 0.00 0.00 0.00 39 1005.3
20260503210540 55 226 0.0 0.0 0.00 0.00 0.00 39 1005.2
20260503210141 55 221 0.0 0.0 0.00 0.00 0.00 40 1005.1
20260503205539 55 228 0.0 0.0 0.00 0.00 0.00 39 1005.0
20260503205038 55 219 0.0 1.0 0.00 0.00 0.00 38 1005.0
20260503204550 55 227 0.0 0.0 0.00 0.00 0.00 40 1004.9
20260503204038 55 231 0.0 0.0 0.00 0.00 0.00 39 1004.9
20260503203537 55 229 0.0 0.0 0.00 0.00 0.00 39 1004.9
20260503203038 55 231 0.0 0.0 0.00 0.00 0.00 39 1004.7
20260503202537 56 307 0.0 0.0 0.00 0.00 0.00 39 1004.7